Location: Lussas
(44.6119°N, 4.4726°E)
Time: 15:10:38
(UTC+00:00)

SJ 16-02 - Pass Details

Date: 26 November 2020
Orbit: 606 x 616 km, 75.0° (Epoch: 28 January)

Event Time Altitude Azimuth Distance (km) Brightness Sun altitude
Rises 03:54:23 0° 162° (SSE) 2,863 5.0 -31.3°
Reaches altitude 10° 03:57:01 10° 147° (SSE) 1,966 4.3 -30.8°
Maximum altitude 04:00:20 21° 98° (E) 1,377 3.8 -30.3°
Drops below altitude 10° 04:03:41 10° 48° (NE) 1,982 4.5 -29.7°
Sets 04:06:20 0° 33° (NNE) 2,894 5.2 -29.2°
